ITT1032 LIPR-LIQB

Flight info

Callsign ITT1032
Flight time 0h 35m
Altitude 7000
Route RIM DCT MOGPU DCT 432835N0120406E 432622N0115855E 432510N0115557E DCT 432713N0115104E
Aircraft C172/L-SFG/C

Departure

Time 2026-04-24 06:46
Airport Federico Fellini International Airport (LIPR)

Arrival

Time 2026-04-24 07:21
Airport Arezzo Molin Blanco Airfield (LIQB)
Time Latitude Longitude Altitude Speed Heading
2026-04-24 06:26 44.02356 12.61615 42 ft 0 kts 127°
2026-04-24 06:40 44.02345 12.61621 43 ft 6 kts 193°
2026-04-24 06:40 44.02307 12.61574 42 ft 9 kts 247°
2026-04-24 06:40 44.02272 12.61501 42 ft 10 kts 216°
2026-04-24 06:40 44.02208 12.61435 42 ft 12 kts 220°
2026-04-24 06:41 44.02186 12.61328 42 ft 14 kts 311°
2026-04-24 06:41 44.02252 12.61211 41 ft 17 kts 308°
2026-04-24 06:41 44.02323 12.61071 41 ft 19 kts 303°
2026-04-24 06:41 44.02392 12.60916 40 ft 14 kts 278°
2026-04-24 06:42 44.02368 12.60891 40 ft 5 kts 191°
2026-04-24 06:42 44.02341 12.60853 40 ft 6 kts 239°
2026-04-24 06:42 44.02306 12.60823 40 ft 6 kts 206°
2026-04-24 06:42 44.02266 12.60795 41 ft 7 kts 187°
2026-04-24 06:43 44.02237 12.60817 41 ft 3 kts 147°
2026-04-24 06:43 44.02223 12.60833 41 ft 0 kts 131°
2026-04-24 06:44 44.02222 12.60834 41 ft 2 kts 130°
2026-04-24 06:44 44.02177 12.60914 41 ft 20 kts 126°
2026-04-24 06:45 44.01999 12.61230 40 ft 65 kts 128°
2026-04-24 06:45 44.01716 12.61811 212 ft 71 kts 118°
2026-04-24 06:45 44.01443 12.62431 365 ft 79 kts 128°
2026-04-24 06:45 44.01071 12.62999 561 ft 82 kts 135°
2026-04-24 06:46 44.00656 12.63635 713 ft 91 kts 135°
2026-04-24 06:46 44.00247 12.64311 938 ft 91 kts 130°
2026-04-24 06:46 43.99853 12.65000 1145 ft 92 kts 137°
2026-04-24 06:46 43.99389 12.65617 1366 ft 93 kts 146°
2026-04-24 06:47 43.98859 12.66087 1594 ft 92 kts 150°
2026-04-24 06:47 43.98274 12.66562 1584 ft 99 kts 154°
2026-04-24 06:47 43.97691 12.66996 1723 ft 95 kts 153°
2026-04-24 06:47 43.97131 12.67528 1820 ft 98 kts 142°
2026-04-24 06:48 43.96664 12.68215 1930 ft 98 kts 135°
2026-04-24 06:48 43.96235 12.68940 2060 ft 97 kts 130°
2026-04-24 06:48 43.95773 12.69643 2116 ft 101 kts 151°
2026-04-24 06:48 43.95103 12.69851 2161 ft 102 kts 191°
2026-04-24 06:49 43.94518 12.69308 2271 ft 100 kts 224°
2026-04-24 06:49 43.94067 12.68599 2350 ft 102 kts 232°
2026-04-24 06:49 43.93702 12.67760 2425 ft 100 kts 240°
2026-04-24 06:49 43.93359 12.66910 2532 ft 102 kts 238°
2026-04-24 06:50 43.92976 12.66095 2665 ft 100 kts 231°
2026-04-24 06:50 43.92538 12.65319 2747 ft 103 kts 231°
2026-04-24 06:50 43.92096 12.64545 2798 ft 108 kts 229°
2026-04-24 06:50 43.91567 12.63728 2783 ft 112 kts 223°
2026-04-24 06:51 43.91004 12.63048 2883 ft 108 kts 217°
2026-04-24 06:51 43.90355 12.62492 2881 ft 109 kts 206°
2026-04-24 06:51 43.89677 12.62029 2903 ft 110 kts 203°
2026-04-24 06:51 43.89069 12.61399 2920 ft 111 kts 223°
2026-04-24 06:52 43.88496 12.60675 2968 ft 110 kts 219°
2026-04-24 06:52 43.87901 12.60026 3039 ft 108 kts 217°
2026-04-24 06:52 43.87309 12.59374 3106 ft 110 kts 216°
2026-04-24 06:52 43.86707 12.58742 3193 ft 110 kts 217°
2026-04-24 06:53 43.86135 12.58000 3215 ft 114 kts 222°
2026-04-24 06:53 43.85580 12.57227 3266 ft 112 kts 222°
2026-04-24 06:53 43.84962 12.56556 3331 ft 114 kts 214°
2026-04-24 06:53 43.84310 12.55978 3380 ft 113 kts 214°
2026-04-24 06:54 43.83681 12.55224 3310 ft 121 kts 221°
2026-04-24 06:54 43.83080 12.54435 3291 ft 122 kts 221°
2026-04-24 06:54 43.82474 12.53569 3268 ft 123 kts 227°
2026-04-24 06:54 43.81921 12.52708 3230 ft 121 kts 222°
2026-04-24 06:55 43.81272 12.51931 3160 ft 121 kts 218°
2026-04-24 06:55 43.80631 12.51197 3164 ft 119 kts 218°
2026-04-24 06:55 43.79980 12.50458 3057 ft 123 kts 216°
2026-04-24 06:55 43.79292 12.49783 3032 ft 121 kts 213°
2026-04-24 06:56 43.78563 12.49260 2974 ft 121 kts 192°
2026-04-24 06:56 43.77751 12.48976 2956 ft 116 kts 198°
2026-04-24 06:56 43.77095 12.48346 2880 ft 118 kts 233°
2026-04-24 06:56 43.76731 12.47329 2854 ft 117 kts 245°
2026-04-24 06:57 43.76401 12.46280 2768 ft 120 kts 243°
2026-04-24 06:57 43.76024 12.45278 2774 ft 118 kts 239°
2026-04-24 06:57 43.75635 12.44283 2846 ft 114 kts 236°
2026-04-24 06:57 43.75229 12.43308 2836 ft 119 kts 239°
2026-04-24 06:58 43.74833 12.42295 2792 ft 121 kts 239°
2026-04-24 06:58 43.74456 12.41272 2808 ft 118 kts 246°
2026-04-24 06:58 43.74148 12.40223 2729 ft 118 kts 248°
2026-04-24 06:58 43.73793 12.39216 2767 ft 113 kts 243°
2026-04-24 06:59 43.73442 12.38279 2846 ft 109 kts 247°
2026-04-24 06:59 43.73141 12.37314 2877 ft 110 kts 246°
2026-04-24 06:59 43.72829 12.36367 2950 ft 107 kts 246°
2026-04-24 06:59 43.72515 12.35433 2977 ft 109 kts 244°
2026-04-24 07:00 43.72125 12.34465 2941 ft 112 kts 243°
2026-04-24 07:00 43.71770 12.33552 3030 ft 109 kts 243°
2026-04-24 07:00 43.71489 12.32588 3091 ft 107 kts 251°
2026-04-24 07:00 43.71239 12.31632 3192 ft 104 kts 249°
2026-04-24 07:01 43.70956 12.30660 3157 ft 112 kts 248°
2026-04-24 07:01 43.70685 12.29664 3206 ft 109 kts 257°
2026-04-24 07:01 43.70594 12.28608 3205 ft 111 kts 265°
2026-04-24 07:01 43.70419 12.27587 3232 ft 111 kts 244°
2026-04-24 07:02 43.69927 12.26759 3293 ft 109 kts 220°
2026-04-24 07:02 43.69281 12.26300 3443 ft 98 kts 199°
2026-04-24 07:02 43.68590 12.26128 3465 ft 105 kts 185°
2026-04-24 07:02 43.67860 12.26068 3562 ft 101 kts 193°
2026-04-24 07:03 43.67188 12.25697 3589 ft 105 kts 217°
2026-04-24 07:03 43.66721 12.24906 3594 ft 110 kts 242°
2026-04-24 07:03 43.66431 12.23948 3674 ft 106 kts 251°
2026-04-24 07:03 43.66235 12.22991 3805 ft 100 kts 264°
2026-04-24 07:04 43.66243 12.22031 3890 ft 101 kts 274°
2026-04-24 07:04 43.66365 12.21055 3911 ft 105 kts 287°
2026-04-24 07:04 43.66541 12.20107 4045 ft 98 kts 284°
2026-04-24 07:04 43.66716 12.19136 4036 ft 106 kts 285°
2026-04-24 07:05 43.66885 12.18176 4168 ft 100 kts 283°
2026-04-24 07:05 43.67015 12.17254 4284 ft 97 kts 275°
2026-04-24 07:05 43.66968 12.16347 4397 ft 95 kts 260°
2026-04-24 07:05 43.66712 12.15497 4457 ft 100 kts 227°
2026-04-24 07:06 43.66099 12.14824 4241 ft 123 kts 218°
2026-04-24 07:06 43.65430 12.14227 4392 ft 109 kts 209°
2026-04-24 07:06 43.64706 12.13779 4305 ft 118 kts 203°
2026-04-24 07:06 43.63963 12.13366 4353 ft 113 kts 206°
2026-04-24 07:07 43.63253 12.12868 4337 ft 115 kts 207°
2026-04-24 07:07 43.62545 12.12348 4351 ft 115 kts 213°
2026-04-24 07:07 43.61554 12.10628 4356 ft 112 kts 239°
2026-04-24 07:08 43.61142 12.09683 4317 ft 116 kts 240°
2026-04-24 07:08 43.60738 12.08731 4348 ft 114 kts 240°
2026-04-24 07:08 43.60336 12.07784 4332 ft 115 kts 242°
2026-04-24 07:08 43.59956 12.06811 4334 ft 115 kts 243°
2026-04-24 07:09 43.59578 12.05824 4294 ft 118 kts 245°
2026-04-24 07:09 43.59217 12.04812 4264 ft 118 kts 245°
2026-04-24 07:09 43.58848 12.03778 4174 ft 120 kts 244°
2026-04-24 07:09 43.58434 12.02744 4071 ft 123 kts 238°
2026-04-24 07:10 43.57919 12.01834 4067 ft 120 kts 233°
2026-04-24 07:10 43.57528 12.00786 3989 ft 122 kts 247°
2026-04-24 07:10 43.57298 12.00092 3966 ft 121 kts 245°
2026-04-24 07:10 43.56920 11.98983 3734 ft 131 kts 245°
2026-04-24 07:11 43.56538 11.97881 3678 ft 125 kts 249°
2026-04-24 07:11 43.56200 11.96788 3602 ft 125 kts 245°
2026-04-24 07:11 43.55816 11.95695 3474 ft 127 kts 242°
2026-04-24 07:11 43.55443 11.94614 3412 ft 124 kts 245°
2026-04-24 07:12 43.55083 11.93525 3299 ft 126 kts 245°
2026-04-24 07:12 43.54719 11.92437 3260 ft 124 kts 245°
2026-04-24 07:12 43.54259 11.90985 3207 ft 124 kts 253°
2026-04-24 07:12 43.54182 11.90199 3150 ft 125 kts 270°
2026-04-24 07:13 43.54075 11.89057 3154 ft 121 kts 250°
2026-04-24 07:13 43.53733 11.87959 3032 ft 124 kts 244°
2026-04-24 07:13 43.53356 11.86911 2981 ft 122 kts 249°
2026-04-24 07:13 43.53161 11.85754 2895 ft 124 kts 260°
2026-04-24 07:14 43.52984 11.84611 2867 ft 122 kts 255°
2026-04-24 07:14 43.52707 11.83488 2784 ft 124 kts 250°
2026-04-24 07:14 43.52408 11.82388 2736 ft 122 kts 251°
2026-04-24 07:14 43.52153 11.81262 2655 ft 123 kts 255°
2026-04-24 07:15 43.51918 11.80133 2600 ft 122 kts 255°
2026-04-24 07:15 43.51668 11.79014 2553 ft 121 kts 252°
2026-04-24 07:15 43.51451 11.77893 2511 ft 121 kts 258°
2026-04-24 07:15 43.51276 11.76750 2450 ft 123 kts 258°
2026-04-24 07:16 43.51078 11.75599 2368 ft 124 kts 258°
2026-04-24 07:16 43.50904 11.74442 2298 ft 123 kts 259°
2026-04-24 07:16 43.50730 11.73279 2191 ft 125 kts 260°
2026-04-24 07:16 43.50531 11.72129 2138 ft 123 kts 241°
2026-04-24 07:17 43.49801 11.71554 2009 ft 120 kts 180°
2026-04-24 07:17 43.49124 11.72091 1891 ft 119 kts 127°
2026-04-24 07:17 43.48696 11.73061 1814 ft 117 kts 114°
2026-04-24 07:17 43.48463 11.74117 1778 ft 115 kts 99°
2026-04-24 07:18 43.48376 11.75215 1740 ft 115 kts 94°
2026-04-24 07:18 43.48351 11.76316 1746 ft 114 kts 90°
2026-04-24 07:18 43.48323 11.77414 1720 ft 114 kts 107°
2026-04-24 07:18 43.47982 11.78367 1783 ft 111 kts 117°
2026-04-24 07:19 43.47641 11.79349 1799 ft 115 kts 114°
2026-04-24 07:19 43.47313 11.80317 1747 ft 110 kts 116°
2026-04-24 07:19 43.46929 11.81210 1677 ft 109 kts 122°
2026-04-24 07:19 43.46588 11.82091 1488 ft 98 kts 119°
2026-04-24 07:20 43.46302 11.82805 1332 ft 77 kts 119°
2026-04-24 07:20 43.46050 11.83451 1122 ft 77 kts 119°
2026-04-24 07:20 43.45790 11.84085 928 ft 75 kts 121°
2026-04-24 07:20 43.45551 11.84668 824 ft 59 kts 121°
2026-04-24 07:21 43.45395 11.85037 826 ft 21 kts 121°
2026-04-24 07:21 43.45395 11.85077 827 ft 7 kts 266°
2026-04-24 07:21 43.45412 11.84993 825 ft 11 kts 298°
2026-04-24 07:21 43.45458 11.84886 824 ft 16 kts 301°
2026-04-24 07:22 43.45522 11.84735 824 ft 19 kts 299°
2026-04-24 07:22 43.45588 11.84575 825 ft 18 kts 299°
2026-04-24 07:22 43.45648 11.84439 825 ft 14 kts 319°
2026-04-24 07:22 43.45739 11.84468 824 ft 15 kts 26°
2026-04-24 07:23 43.45838 11.84544 822 ft 16 kts 31°
2026-04-24 07:23 43.45887 11.84582 822 ft 3 kts 18°
2026-04-24 07:23 43.45880 11.84598 822 ft 2 kts 213°
2026-04-24 07:23 43.45879 11.84595 822 ft 0 kts 245°